Regional Weather Roundup
Issued by NWS State College, PA

Home | Current Version | Previous Version | Text Only | Print | Product List | Glossary On
Versions: 1 2 3 4 5 6 7 8 9 10 11 12 13 14 15 16 17 18 19 20 21 22 23 24 25 26 27 28 29 30 31 32 33 34 35 36 37 38 39 40 41 42 43 44 45 46 47 48 49 50
158
ASUS41 KCTP 241903
RWRCTP

REGIONAL WEATHER ROUNDUP
NATIONAL WEATHER SERVICE STATE COLLEGE PA
300 PM EDT TUE MAY 24 2016

Note: "fair" indicates few or no clouds below 12,000 feet with no
significant weather and/or obstructions to visibility.

* = STATION THAT DOES NOT REPORT PRECIPITATION /E.G. RAIN...SNOW...ETC/
    THUNDER OR FOG.

PAZ002>004-007>009-013>016-020>023-029>032-242000-
WESTERN PENNSYLVANIA

CITY           SKY/WX    TMP DP  RH WIND       PRES   REMARKS
ERIE           SUNNY     75  51  43 W9        30.06R
MEADVILLE      SUNNY     75  43  31 W12       30.07R
FRANKLIN*      SUNNY     75  46  35 W7        30.08F
NEW CASTLE     FAIR      79  47  32 W7G16     30.06F
BEAVER COUNTY  SUNNY     77  46  33 NW8       30.07F
BUTLER*        MOSUNNY   77  48  36 NW7       30.09F
PITTSBURGH INT MOSUNNY   79  46  31 W12       30.06F
PITTSBURGH     MOSUNNY   77  44  30 W9G20     30.06F
INDIANA*       MOSUNNY   75  46  35 NW14G21   30.09S
LATROBE        PTSUNNY   75  50  41 W12       30.07F
WASHINGTON CO* MOSUNNY   75  50  41 W8        30.09F
$$

PAZ004>006-010>012-017>019-024>028-033>037-041-042-045-046-049>053-242000-
CENTRAL PENNSYLVANIA

CITY           SKY/WX    TMP DP  RH WIND       PRES   REMARKS
BRADFORD       SUNNY     74  35  24 MISG      30.05S
DUBOIS         MOSUNNY   75  46  35 W15G21    30.04F
CLEARFIELD     MOSUNNY   76  43  30 W13G23    30.02F
JOHNSTOWN      PTSUNNY   72  44  36 NW14      30.08F
ALTOONA        SUNNY     74  42  31 NW15G24   30.04F
STATE COLLEGE  MOSUNNY   79  46  31 W16       30.00S
WILLIAMSPORT   MOSUNNY   83  38  20 NW13G23   29.92F
SELINSGROVE    PTSUNNY   80  45  28 NW8       29.94F
FT INDIANTOWN  MOSUNNY   81  43  25 NW8       29.93F
CAPITAL CITY   MOSUNNY   83  47  28 W13G24    29.94F
HARRISBURG     PTSUNNY   82  50  32 NW13      29.94S
YORK           MOSUNNY   80  48  32 NW13      29.96F
$$

PAZ038>040-043-044-047-048-054-055-060>062-067>071-242000-
EASTERN PENNSYLVANIA

CITY           SKY/WX    TMP DP  RH WIND       PRES   REMARKS
SCRANTON       SUNNY     82  38  20 N17G24    29.92S
MOUNT POCONO   PTSUNNY   69  36  29 N14G23    29.94F
ALLENTOWN      MOSUNNY   83  42  23 N9G18     29.89F
QUAKERTOWN*    CLOUDY    81  50  34 NW9G17    29.91F
READING        PTSUNNY   80  44  27 W16       29.91F
LANCASTER      MOSUNNY   80  48  32 NW15G24   29.94S
COATESVILLE    PTCLDY    79  45  29 NW14G23   29.95F
POTTSTOWN      PTSUNNY   76  48  37 NW8       29.92F
BLUE BELL      PTSUNNY   75  54  46 SW5       29.90F
DOYLESTOWN     MOSUNNY   76  48  37 SW6       29.89F
WILLOW GROVE   NOT AVBL
NORTH PHILA    CLOUDY    78  51  38 SW10      29.92F
PHILADELPHIA   PTSUNNY   78  49  35 SW12      29.91F
$$




USA.gov is the U.S. government's official web portal to all federal, state and local government web resources and services.